Weather History for Sheridan, WY

Change the Weather History Date:

Saturday, March 1, 2014

  Actual Average Record
Temperature  
Mean Temperature -3 °F 30 °F  
Max Temperature 1 °F 43 °F 69 °F (1992)
Min Temperature -8 °F 18 °F -15 °F (1960)
Degree Days  
Heating Degree Days 68 35  
Month to date heating degree days 68 35  
Since 1 July heating degree days 5818 5570  
Cooling Degree Days 0 0  
Month to date cooling degree days 0 0  
Year to date cooling degree days 0 0  
Moisture  
Dew Point -11 °F    
Average Humidity 74    
Maximum Humidity 83    
Minimum Humidity 64    
Precipitation  
Precipitation 0.13 in 0.02 in 0.18 in (1925)
Month to date precipitation 0.13 0.02  
Year to date precipitation 1.98 1.12  
Sea Level Pressure  
Sea Level Pressure 30.26 in    
Wind  
Wind Speed 8 mph (NE)    
Max Wind Speed 13 mph    
Max Gust Speed 16 mph    
Visibility 4 miles    
Events Snow    
T = Trace of Precipitation, MM = Missing Value Source: NWS Daily Summary

Daily Weather History Graph

Daily Weather History Graph

Search for Another Location

Airport:

Trip Planner

Search our weather history database for the weather conditions in past years. The results will help you decide how hot, cold, wet, or windy it might be!

Date:

Astronomy

Mar. 01, 2014 Rise Set
Actual Time 6:45 AM MST 5:55 PM MST
Civil Twilight 6:16 AM MST 6:25 PM MST
Nautical Twilight 5:42 AM MST 6:58 PM MST
Astronomical Twilight 5:08 AM MST 7:32 PM MST
Moon 6:38 AM MST (3/1) 6:50 PM MST (3/1)
Length of Visible Light 12h 08m
Length of Day
11h 10m
New Moon, 0% of the Moon is Illuminated
Mar 1
New Moon
Mar 8
First Quarter
Mar 16
Full
Mar 23
Last Quarter
Mar 30
New

Hourly Weather History & Observations

Time (MST) Temp. Windchill Dew Point Humidity Pressure Visibility Wind Dir Wind Speed Gust Speed Precip Events Conditions
12:22 AM 1.0 °F -11.7 °F -4.0 °F 79% 30.11 in 2.5 mi NNW 6.9 mph - 0.00 in Snow Light Snow
12:28 AM 1.0 °F -14.0 °F -4.0 °F 79% 30.10 in 3.0 mi NNW 9.2 mph - 0.01 in Snow Light Snow
12:53 AM -0.0 °F -14.2 °F -4.0 °F 83% 30.33 in 7.0 mi North 8.1 mph - 0.01 in Snow Light Snow
1:09 AM -0.0 °F -15.3 °F -5.1 °F 79% 30.08 in 1.8 mi North 9.2 mph - 0.00 in Snow Light Snow
1:25 AM -0.0 °F -14.2 °F -5.1 °F 79% 30.09 in 2.5 mi North 8.1 mph - 0.00 in Snow Light Snow
1:32 AM -0.0 °F -13.0 °F -5.1 °F 79% 30.08 in 3.0 mi North 6.9 mph - 0.00 in Snow Light Snow
1:46 AM -0.9 °F -12.7 °F -5.1 °F 83% 30.09 in 2.0 mi NNE 5.8 mph - 0.01 in Snow Light Snow
1:53 AM -0.9 °F -14.1 °F -5.1 °F 83% 30.33 in 2.0 mi NNE 6.9 mph - 0.01 in Snow Light Snow
2:06 AM -0.9 °F -14.1 °F -6.0 °F 79% 30.10 in 3.0 mi NE 6.9 mph - 0.00 in Snow Light Snow
2:16 AM -2.0 °F -15.4 °F -7.1 °F 79% 30.11 in 4.0 mi North 6.9 mph - 0.00 in Snow Light Snow
2:53 AM -2.0 °F -16.6 °F -6.0 °F 83% 30.35 in 8.0 mi North 8.1 mph - 0.00 in   Overcast
3:53 AM -2.0 °F -18.7 °F -8.0 °F 76% 30.38 in 4.0 mi NE 10.4 mph - 0.00 in Snow Light Snow
4:53 AM -2.9 °F -17.7 °F -8.0 °F 79% 30.38 in 6.0 mi NE 8.1 mph - 0.00 in Snow Light Snow
5:06 AM -2.9 °F -17.7 °F -8.0 °F 79% 30.12 in 5.0 mi NNE 8.1 mph - 0.00 in Snow Light Snow
5:53 AM -4.0 °F -19.0 °F -9.9 °F 76% 30.41 in 2.5 mi NE 8.1 mph - 0.00 in Snow Light Snow
6:06 AM -4.0 °F -17.8 °F -9.9 °F 76% 30.14 in 2.0 mi NNE 6.9 mph - 0.00 in Snow Light Snow
6:20 AM -4.0 °F -19.0 °F -9.9 °F 76% 30.14 in 4.0 mi NE 8.1 mph - 0.01 in Snow Light Snow
6:39 AM -4.0 °F -19.0 °F -9.9 °F 76% 30.14 in 10.0 mi NNE 8.1 mph - 0.01 in   Overcast
6:53 AM -4.0 °F -21.2 °F -9.9 °F 76% 30.42 in 9.0 mi NE 10.4 mph - 0.01 in   Overcast
7:32 AM -5.1 °F -22.5 °F -11.0 °F 76% 30.15 in 1.8 mi NE 10.4 mph - 0.00 in Snow Light Snow
7:39 AM -5.1 °F -21.5 °F -11.0 °F 76% 30.16 in 1.8 mi NE 9.2 mph - 0.00 in Snow Light Snow
7:53 AM -4.0 °F -20.2 °F -11.0 °F 72% 30.44 in 4.0 mi NE 9.2 mph - 0.00 in Snow Light Snow
8:46 AM -4.0 °F -19.0 °F -11.9 °F 69% 30.17 in 2.0 mi East 8.1 mph - 0.00 in Snow Light Snow
8:53 AM -4.0 °F -17.8 °F -11.9 °F 69% 30.45 in 1.8 mi East 6.9 mph - 0.00 in Snow Light Snow
8:56 AM -4.0 °F -17.8 °F -11.9 °F 69% 30.17 in 2.0 mi East 6.9 mph - 0.00 in Snow Light Snow
9:09 AM -4.0 °F -19.0 °F -11.9 °F 69% 30.17 in 1.8 mi East 8.1 mph - 0.01 in Snow Light Snow
9:24 AM -5.1 °F -21.5 °F -11.9 °F 72% 30.16 in 0.8 mi East 9.2 mph - 0.01 in Snow Light Snow
9:36 AM -4.0 °F -21.2 °F -11.0 °F 72% 30.16 in 0.8 mi NE 10.4 mph - 0.02 in Snow Light Snow
9:47 AM -4.0 °F -22.1 °F -11.2 °F 71% 30.15 in 1.0 mi NE 11.5 mph - 0.03 in Snow Light Snow
9:53 AM -4.0 °F -22.1 °F -11.0 °F 72% 30.45 in 1.5 mi NE 11.5 mph - 0.03 in Snow Light Snow
10:09 AM -5.1 °F -22.5 °F -11.9 °F 72% 30.15 in 2.0 mi ENE 10.4 mph - 0.00 in Snow Light Snow
10:19 AM -5.1 °F -20.4 °F -11.9 °F 72% 30.15 in 1.8 mi East 8.1 mph - 0.00 in Snow Light Snow
10:30 AM -5.1 °F -19.1 °F -11.0 °F 76% 30.15 in 2.5 mi ENE 6.9 mph - 0.00 in Snow Light Snow
10:49 AM -4.0 °F -17.8 °F -11.2 °F 71% 30.15 in 1.2 mi ENE 6.9 mph - 0.01 in Snow Light Snow
10:53 AM -4.0 °F -20.2 °F -11.0 °F 72% 30.44 in 0.8 mi ENE 9.2 mph - 0.01 in Snow Light Snow
11:02 AM -5.1 °F -20.4 °F -11.0 °F 76% 30.15 in 0.5 mi East 8.1 mph - 0.00 in Snow Snow
11:10 AM -5.1 °F -21.5 °F -11.0 °F 76% 30.15 in 0.8 mi East 9.2 mph - 0.01 in Snow Light Snow
11:22 AM -5.1 °F -22.5 °F -11.0 °F 76% 30.15 in 0.5 mi East 10.4 mph - 0.02 in Snow Snow
11:43 AM -4.0 °F -19.0 °F -11.0 °F 72% 30.16 in 0.5 mi East 8.1 mph - 0.04 in Snow Snow
11:49 AM -4.0 °F -20.2 °F -11.2 °F 71% 30.16 in 0.8 mi East 9.2 mph - 0.04 in Snow Light Snow
11:53 AM -4.0 °F -21.2 °F -11.0 °F 72% 30.45 in 0.8 mi East 10.4 mph - 0.04 in Snow Light Snow
12:02 PM -4.0 °F -21.2 °F -11.9 °F 69% 30.15 in 1.0 mi East 10.4 mph - 0.01 in Snow Light Snow
12:21 PM -4.0 °F -21.2 °F -11.0 °F 72% 30.15 in 1.2 mi East 10.4 mph - 0.01 in Snow Light Snow
12:46 PM -4.0 °F -22.1 °F -11.9 °F 69% 30.14 in 2.5 mi East 11.5 mph - 0.02 in Snow Light Snow
12:53 PM -4.0 °F -21.2 °F -13.0 °F 65% 30.44 in 4.0 mi East 10.4 mph - 0.02 in Snow Light Snow
1:09 PM -5.1 °F -22.5 °F -13.0 °F 69% 30.14 in 6.0 mi East 10.4 mph - 0.00 in Snow Light Snow
1:46 PM -4.0 °F -19.0 °F -13.0 °F 65% 30.13 in 2.5 mi East 8.1 mph - 0.00 in Snow Light Snow
1:53 PM -5.1 °F -22.5 °F -13.0 °F 69% 30.43 in 3.0 mi East 10.4 mph - 0.00 in Snow Light Snow
2:41 PM -4.0 °F -19.0 °F -13.0 °F 65% 30.12 in 7.0 mi East 8.1 mph - 0.00 in   Overcast
2:53 PM -4.0 °F -19.0 °F -13.0 °F 65% 30.43 in 10.0 mi ENE 8.1 mph - 0.00 in   Overcast
3:53 PM -5.1 °F -17.6 °F -14.1 °F 65% 30.45 in 9.0 mi East 5.8 mph - N/A   Overcast
4:17 PM -5.1 °F -17.6 °F -14.1 °F 65% 30.14 in 6.0 mi East 5.8 mph - 0.00 in Snow Light Snow
4:53 PM -5.1 °F -15.8 °F -14.1 °F 65% 30.47 in 4.0 mi ENE 4.6 mph - 0.00 in Snow Light Snow
5:24 PM -7.1 °F -23.9 °F -14.1 °F 72% 30.15 in 2.5 mi ENE 9.2 mph - 0.00 in Snow Light Snow
5:31 PM -7.1 °F -22.8 °F -14.1 °F 72% 30.16 in 2.5 mi ENE 8.1 mph - 0.00 in Snow Light Snow
5:50 PM -7.6 °F -22.1 °F -14.8 °F 71% 30.16 in 3.0 mi ENE 6.9 mph - 0.00 in Snow Light Snow
5:51 PM -7.1 °F -22.8 °F -14.1 °F 72% 30.48 in 4.0 mi ENE 8.1 mph - 0.00 in Snow Light Snow
6:53 PM -7.1 °F -18.1 °F -15.0 °F 68% 30.50 in 10.0 mi ENE 4.6 mph - 0.00 in   Partly Cloudy
7:53 PM -7.1 °F -18.1 °F -15.0 °F 68% 30.50 in 10.0 mi ENE 4.6 mph - N/A   Overcast
8:53 PM -8.0 °F -16.9 °F -16.1 °F 68% 30.51 in 10.0 mi East 3.5 mph - 0.00 in   Scattered Clouds
9:53 PM -7.1 °F -15.9 °F -15.0 °F 68% 30.51 in 10.0 mi ESE 3.5 mph - N/A   Overcast
10:53 PM -7.1 °F -15.9 °F -15.0 °F 68% 30.50 in 10.0 mi ENE 3.5 mph - N/A   Overcast
11:06 PM -7.1 °F -15.9 °F -15.0 °F 68% 30.17 in 10.0 mi North 3.5 mph - N/A   Overcast
11:27 PM -8.0 °F -21.0 °F -13.0 °F 79% 30.17 in 8.0 mi North 5.8 mph - N/A   Overcast
11:41 PM -8.0 °F -21.0 °F -13.0 °F 79% 30.16 in 10.0 mi NNW 5.8 mph - N/A   Overcast
11:53 PM -8.0 °F -21.0 °F -13.0 °F 79% 30.49 in 10.0 mi NNW 5.8 mph - N/A   Overcast